Regional Weather Roundup
Issued by NWS

Home | Current Version | Previous Version | Text Only | Print | Product List | Glossary On
Versions: 1 2 3 4 5 6 7 8 9 10 11 12 13 14 15 16 17 18 19 20 21 22 23 24 25 26 27 28 29 30 31 32 33 34 35 36 37 38 39 40 41 42 43 44 45 46 47 48 49 50
955
ASUS46 KLOX 220313
RWRCA

SOUTHERN CALIFORNIA WEATHER ROUNDUP
NATIONAL WEATHER SERVICE OXNARD CALIFORNIA
700 PM PST SAT JAN 21 2017

NOTE: "FAIR" INDICATES FEW OR NO CLOUDS BELOW 12,000 FEET WITH NO
SIGNIFICANT WEATHER AND/OR OBSTRUCTIONS TO VISIBILITY.

  -  STATIONS PRECEEDED BY AN ASTERISK (*) ARE NOT NWS OR FAA
     STATIONS AND ARE NOT SUBJECT TO NWS AND FAA QUALITY CONTROL.

CAZ041-042-087-220400-
LA AND ORANGE COUNTY COASTAL AREAS


CITY           SKY/WX    TMP DP  RH WIND       PRES   REMARKS
L.A. DOWNTOWN  MOCLDY    57  48  72 CALM      30.05R
L.A. AIRPORT   CLOUDY    56  48  74 SW13      30.06R
LONG BEACH     CLOUDY    56  46  69 SW3       30.06R

CITY           SKY/WX    TMP DP  RH WIND       PRES   REMARKS
AVALON           N/A     54 N/A N/A MISG        N/A
FULLERTON      CLOUDY    56  48  74 CALM      30.06R
*GETTY CENTER    N/A     48  43  81 SW7         N/A
HAWTHORNE      MOCLDY    57  47  69 SW7       30.06R
*LEO CARRILLO    N/A     55  46  72 CALM        N/A
*LOS ALAMITOS  FAIR      54  48  82 SW5       30.06R
*REDONDO BEACH   N/A     56  47  72 SW3       30.06R
SANTA ANA      CLOUDY    56  47  71 S3        30.06R
STA MONICA APT CLOUDY    56  48  74 SW7       30.05R
TORRANCE       PTCLDY    54  46  76 W3        30.06R
*UCLA            N/A     54  45  71 SW8       30.02R

$$

CAZ547-548-048-220400-
LA COUNTY VALLEYS AND INLAND EMPIRE


CITY           SKY/WX    TMP DP  RH WIND       PRES   REMARKS
BURBANK        CLOUDY    54  41  61 SE7       30.03R
VAN NUYS       CLOUDY    54  43  66 CALM      30.02R

CITY           SKY/WX    TMP DP  RH WIND       PRES   REMARKS
CORONA AIRPORT MOCLDY    52  45  77 W5        30.06R
*CHATSWORTH      N/A     52  44  73 W1        30.07R
CHINO          MOCLDY    53  46  77 W8        30.07R
*CLAREMONT       N/A     49  43  79 SW3         N/A
MARCH AFB      PTCLDY    48  46  91 S3        30.04R
*NORTHRIDGE      N/A     52  41  66 CALM        N/A
ONTARIO        MOCLDY    51  44  77 W9        30.05R
*PASADENA        N/A     54  45  71 CALM        N/A
POMONA         CLOUDY    50  45  81 SW5       30.08R
RIVERSIDE      PTCLDY    51  45  79 VRB3      30.05R
SAN BERNARDINO NOT AVBL
*SAN RAFAEL HI   N/A     48  42  79 S5          N/A
*SAUGUS          N/A     48  38  69 W3          N/A
*WHITEMAN AP   NOT AVBL
*WHITTIER HILL   N/A     51  45  80 SW2         N/A
*WOODLAND HILL   N/A     52  41  66 S2          N/A

$$

CAZ054-055-220400-
LA AND SAN BERNARDINO COUNTY MOUNTAINS


CITY           SKY/WX    TMP DP  RH WIND       PRES   REMARKS
*ACTON           N/A     47  38  70 W7          N/A
*BIG BEAR AIRP MOCLDY    27  23  86 W9        29.98R WCI  17
*BIG PINES       N/A     27  26  94 CALM        N/A
*CHILAO          N/A     34  33  97 E7          N/A  WCI  28
SANDBERG       FOG       39  38  96 S14       29.99S VSB 3/4 WCI  31
*WARM SPRINGS    N/A     38  38  99 SW5         N/A  WCI  34

$$

CAZ028-029-059-060-099-220400-
ANTELOPE VALLEY AND SURROUNDING AREAS


CITY           SKY/WX    TMP DP  RH WIND       PRES   REMARKS
LANCASTER      CLOUDY    47  39  74 W17       29.99R
PALMDALE       CLOUDY    49  39  68 SW13      29.98R
*POPPY PARK      N/A     44  37  76 SW15        N/A

CITY           SKY/WX    TMP DP  RH WIND       PRES   REMARKS
29 PALMS       CLEAR     47  34  60 W3        30.05R
BARSTOW/DAGGET CLEAR     49  34  56 SW10      29.96R
BISHOP         MOCLDY    34  29  82 E5        29.90R WCI  30
CHINA LAKE     CLOUDY    60  28  29 S12       29.92R
EDWARDS AFB    CLOUDY    47  37  68 SW15      29.96R
MOJAVE         PTCLDY    45  30  57 W12       29.96R
NEEDLES        CLEAR     53  37  54 W13       29.95R
VICTORVILLE    MOCLDY    45  36  70 S12       29.98R

$$

CAZ039-040-220400-
VENTURA AND SANTA BARBARA COUNTY COAST


CITY           SKY/WX    TMP DP  RH WIND       PRES   REMARKS
CAMARILLO      CLOUDY    54  48  80 VRB3      30.05R
NWS OXNARD       N/A     55  47  74 CALM      30.04R
OXNARD AIRPORT CLOUDY    55  48  77 W5        30.05R
*POINT MUGU    CLOUDY    55  47  74 CALM      30.06R
SBA APT/GOLETA CLOUDY    54  48  80 CALM      30.03R
*SANTA BARBARA   N/A     56  46  69 CALM      30.11R
*VENTURA         N/A     54  48  80 SW3       30.04R

$$

CAZ044-045-220400-
VENTURA COUNTY VALLEYS


CITY           SKY/WX    TMP DP  RH WIND       PRES   REMARKS
*SIMI VALLEY     N/A     51  46  83 W2        30.04S
*WESTLAKE VILL   N/A     49  43  81 CALM      30.05R
*OJAI            N/A     50  46  86 CALM      30.02R

$$

CAZ053-220400-
VENTURA COUNTY MOUNTAINS


CITY           SKY/WX    TMP DP  RH WIND       PRES   REMARKS
*LOCKWOOD VLY    N/A     32  28  86 NW2         N/A
*FRAZIER MTN     N/A     22  16  79 CALM      29.72R
*ROSE VALLEY     N/A     43  43 100 MISG        N/A

$$

CAZ034-035-036-220400-
CENTRAL COAST AND SANTA YNEZ VALLEY


CITY           SKY/WX    TMP DP  RH WIND       PRES   REMARKS
SAN LUIS OBISP CLOUDY    53  48  83 SE5       30.01R
SANTA MARIA    CLOUDY    51  48  89 CALM      30.02R

CITY           SKY/WX    TMP DP  RH WIND       PRES   REMARKS
*CAL POLY SLO    N/A     52  48  87 W1G7        N/A
*LOMPOC          N/A    N/A N/A N/A MISG        N/A
*PISMO BEACH     N/A     55  50  82 SE3       30.00S
*SANTA YNEZ    MOCLDY    50  45  81 CALM      30.02R

$$

CAZ037-038-051-220400-
SAN LUIS OBISPO COUNTY INTERIOR AND CUYAMA VALLEY


CITY           SKY/WX    TMP DP  RH WIND       PRES   REMARKS
*CUYAMA          N/A     47  41  81 W2        29.98R
PASO ROBLES    CLOUDY    49  47  93 SE3       29.98R

$$

CAZ032-033-061-220400-
SOUTHERN DESERTS


CITY           SKY/WX    TMP DP  RH WIND       PRES   REMARKS
BLYTHE         CLEAR     57  40  52 SW6       29.97R
IMPERIAL       CLEAR     55  42  61 SW9       30.00R
PALM SPRINGS   PTCLDY    56  39  53 CALM      30.00R
THERMAL        MOCLDY    57  41  55 NW7       29.98R

$$

ELSEWHERE ACROSS THE WESTERN UNITED STATES AND MEXICO


CITY           SKY/WX    TMP DP  RH WIND       PRES   REMARKS
DEATH VALLEY,    N/A     51  39  63 CALM        N/A
DENVER, CO     CLOUDY    33  24  69 NW8       29.57R WCI  26
GRAND CANYON,  CLEAR     11  11 100 CALM      29.95R
HONOLULU, HI   LGT RAIN  70  61  73 NE28G38   30.11R
KAHULUI, MAUI  LGT RAIN  70  66  88 NE18G31   30.10R
LAKE TAHOE, CA CLOUDY    29  19  66 S13       29.78S WCI  19
LAS VEGAS, NV  CLEAR     49  30  48 S5        29.93R
MAMMOTH LAKES, FAIR      20  13  72 CALM      29.87R
MEXICO CITY, M CLEAR     61  39  44 SE8       30.27R
PHOENIX, AZ    PTCLDY    52  37  56 SW7       29.99R
PORTLAND, OR   CLOUDY    46  42  86 S14       29.59R
RENO, NV       CLOUDY    39  20  46 E3        29.80R
SALT LAKE CITY MOCLDY    33  29  85 S3        29.85R
SAN DIEGO, CA  MOCLDY    57  44  62 CALM      30.08R
SAN FRANCISCO, RAIN      50  45  83 SE12      29.86F
SAN JOSE, CA   LGT RAIN  52  42  69 SE9       29.89R
SEATTLE, WA    CLOUDY    45  43  93 SW7       29.55R
TIJUANA, MEX   CLEAR     52  43  71 CALM      30.08R

$$

STATION/POSITION TIME  TEMP    WIND        PRES    VSBY  WAVE
                       AIR SEA DIR/SP/G                  HT/PER
                 (UTC) (F)     (DEG/KT/KT) (MB)    (MI)  (FT/S)
POINT ARGUELLO B NOT AVBL
WEST SANTA BARBA 0250   57 57  230/  8/ 10 1016.9R        23/19
POINT CONCEPTION NOT AVBL
EAST SANTA BARBA 0300          250/  8/ 12 1017.5
SANTA MONICA BAY 0300   57 58  240/ 10/ 14 1017.4



USA.gov is the U.S. government's official web portal to all federal, state and local government web resources and services.